Content
SEND FEEDBACK

Daily
Averages
Monthly
Summary
Greece

ATHENS, GREECE


Home > Europe > Greece
Elevation: 69 feet     Latitude: 37 54N     Longitude: 023 44E

WEATHER
 
SELECT A DAY
Number of Records: 82,926;   Date Range: 4/14/01 - 11/19/14
 
SHARE

PRINT THIS DATA

[ ← Previous Day ]
WEATHER ALMANAC - AUGUST 21, 2013
[ Next Day → ]
[ °C ]   °F
Weather ElementAverageHighLow
Temperature80.9 °F84.2 °F (1:50 pm)75.2 °F (7:20 am)
Dewpoint56.6 °F62.6 °F (8:50 am)51.8 °F (12:50 am)
Humidity43.7 %61 % (7:20 am)37 % (12:50 am)
Barometer29.88 in29.92 in (10:50 am)29.86 in (2:50 am)
Wind Speed16.9 mph27.6 mph (1:20 pm)
Wind Gust36.8 mph (11:50 am)
Weather ElementAverage
Visibility6.2 mi
Wind DirectionE (92.1 °)

Weather ElementTotal
Precipitation---
Cooling Degree Days14.7 (Base 65)
Growing Degree Days29.7 (Base 50)
Averaged from 47 records on August 21, 2013
WEATHER CONDITIONS BREAKOUT
WIND DIRECTION BREAKOUT
WEATHER BY HOUR - AUGUST 21, 2013
[ °C ]   °F
Local TimeTemperatureDewpointHumidityBarometerVisibilityWind DirectionWind SpeedGust SpeedPrecipitationEventsConditions
12:50 AM80.6 °F51.8 °F37 %29.89 inNorth (10°)9.2 mphClear
1:20 AM80.6 °F51.8 °F37 %29.89 inNorth (10°)11.5 mphClear
1:50 AM80.6 °F51.8 °F37 %29.89 inNNE (20°)13.8 mphClear
2:20 AM80.6 °F51.8 °F37 %29.89 inNorth (10°)12.7 mphClear
2:50 AM80.6 °F51.8 °F37 %29.86 inNNE (20°)15.0 mphClear
3:20 AM80.6 °F51.8 °F37 %29.86 inNNE (20°)16.1 mphClear
3:50 AM80.6 °F51.8 °F37 %29.86 inNNE (20°)19.6 mphClear
4:20 AM78.8 °F53.6 °F42 %29.86 inNNE (20°)20.7 mphClear
4:50 AM78.8 °F53.6 °F42 %29.86 inNNE (20°)19.6 mphClear
5:20 AM78.8 °F53.6 °F42 %29.86 inNNE (30°)17.3 mphClear
5:50 AM78.8 °F51.8 °F39 %29.86 inNNE (30°)18.4 mph31.1 mphClear
6:20 AM77.0 °F53.6 °F44 %29.86 inNNE (30°)20.7 mphClear
6:50 AM77.0 °F59.0 °F54 %29.86 inNorth (10°)9.2 mphClear
7:20 AM75.2 °F60.8 °F61 %29.86 inNorth (10°)8.1 mphClear
7:50 AM75.2 °F60.8 °F61 %29.89 inNorth (360°)5.8 mphClear
8:20 AM77.0 °F60.8 °F57 %29.89 inNNE (20°)11.5 mphClear
8:50 AM78.8 °F62.6 °F57 %29.89 in6.2 miNNE (20°)15.0 mphPartly Cloudy
9:20 AM78.8 °F59.0 °F51 %29.89 in6.2 miNorth (10°)15.0 mphPartly Cloudy
9:50 AM80.6 °F59.0 °F48 %29.89 in6.2 miNNE (20°)18.4 mphPartly Cloudy
10:20 AM80.6 °F57.2 °F45 %29.89 in6.2 miNNE (20°)19.6 mphPartly Cloudy
10:50 AM82.4 °F57.2 °F42 %29.92 in6.2 miNNE (20°)20.7 mphPartly Cloudy
11:20 AM82.4 °F55.4 °F39 %29.92 in6.2 miNNE (20°)24.2 mphPartly Cloudy
11:50 AM82.4 °F57.2 °F42 %29.92 in6.2 miNNE (20°)23.0 mph36.8 mphPartly Cloudy
12:20 PM82.4 °F53.6 °F37 %29.92 in6.2 miNNE (30°)26.5 mphPartly Cloudy
12:50 PM82.4 °F55.4 °F39 %29.89 in6.2 miNNE (20°)26.5 mphPartly Cloudy
1:20 PM82.4 °F59.0 °F45 %29.89 in6.2 miNNE (30°)27.6 mphPartly Cloudy
1:50 PM84.2 °F57.2 °F40 %29.89 in6.2 miNNE (30°)23.0 mphPartly Cloudy
2:20 PM84.2 °F59.0 °F42 %29.89 in6.2 miNNE (20°)23.0 mphPartly Cloudy
2:50 PM84.2 °F59.0 °F42 %29.89 in6.2 miNNE (30°)25.3 mphPartly Cloudy
3:20 PM84.2 °F60.8 °F45 %29.89 in6.2 miNE (40°)25.3 mphPartly Cloudy
3:50 PM84.2 °F60.8 °F45 %29.89 in6.2 miNE (50°)25.3 mphPartly Cloudy
4:20 PM84.2 °F60.8 °F45 %29.89 in6.2 miNE (50°)26.5 mphPartly Cloudy
4:50 PM84.2 °F60.8 °F45 %29.89 in6.2 miNE (50°)26.5 mphPartly Cloudy
5:20 PM84.2 °F59.0 °F42 %29.89 in6.2 miNNE (30°)20.7 mphPartly Cloudy
5:50 PM84.2 °F59.0 °F42 %29.89 in6.2 miNE (40°)24.2 mphPartly Cloudy
6:20 PM84.2 °F55.4 °F37 %29.86 in6.2 miNNE (20°)18.4 mphScattered Clouds
6:50 PM82.4 °F55.4 °F39 %29.86 in6.2 miNNE (20°)18.4 mphScattered Clouds
7:20 PM82.4 °F55.4 °F39 %29.86 in6.2 miNorth (10°)15.0 mphScattered Clouds
7:50 PM82.4 °F55.4 °F39 %29.86 in6.2 miNorth (360°)12.7 mphScattered Clouds
8:20 PM80.6 °F55.4 °F42 %29.86 in6.2 miNorth (360°)8.1 mphScattered Clouds
8:50 PM80.6 °F57.2 °F45 %29.89 in6.2 miNorth (350°)6.9 mphScattered Clouds
9:20 PM80.6 °F57.2 °F45 %29.89 in6.2 miNNW (340°)8.1 mphScattered Clouds
9:50 PM80.6 °F57.2 °F45 %29.89 in6.2 miNNW (330°)6.9 mphScattered Clouds
10:20 PM78.8 °F57.2 °F47 %29.89 in6.2 miNW (310°)9.2 mphScattered Clouds
10:50 PM78.8 °F57.2 °F47 %29.89 in6.2 miNNW (340°)6.9 mphScattered Clouds
11:20 PM78.8 °F57.2 °F47 %29.89 in6.2 miNorth (360°)9.2 mphScattered Clouds
11:50 PM78.8 °F57.2 °F47 %29.89 in6.2 miNNW (340°)8.1 mphScattered Clouds
Hourly data recorded from LGAV, located miles away from Athens, Greece







STORIES FROM OUR PARTNERS